Weather History for Chamberlain, SD

Change the Weather History Date:

Tuesday, March 11, 2014

  Actual Average Record
Temperature  
Mean Temperature 38 °F -  
Max Temperature 48 °F 36 °F 68 °F (2008)
Min Temperature 30 °F 18 °F -20 °F (1998)
Degree Days  
Heating Degree Days 27    
Moisture  
Dew Point 32 °F    
Average Humidity 76    
Maximum Humidity 89    
Minimum Humidity 56    
Precipitation  
Precipitation 0.00 in - - ()
Sea Level Pressure  
Sea Level Pressure 29.98 in    
Wind  
Wind Speed 16 mph (NNE)    
Max Wind Speed 24 mph    
Max Gust Speed 31 mph    
Averages and records for this station are not official NWS values.
T = Trace of Precipitation, MM = Missing Value Source: NWS Daily Summary

Daily Weather History Graph

Daily Weather History Graph

Search for Another Location

Airport:

Trip Planner

Search our weather history database for the weather conditions in past years. The results will help you decide how hot, cold, wet, or windy it might be!

Date:

Astronomy

Mar. 11, 2014 Rise Set
Actual Time 7:56 AM CDT 7:38 PM CDT
Civil Twilight 7:27 AM CDT 8:07 PM CDT
Nautical Twilight 6:54 AM CDT 8:40 PM CDT
Astronomical Twilight 6:20 AM CDT 9:14 PM CDT
Moon 3:09 PM CDT (3/11) 4:58 AM CDT (3/11)
Length of Visible Light 12h 39m
Length of Day
11h 42m
Waxing Gibbous, 78% of the Moon is Illuminated
Mar 11
Waxing Gibbous
Mar 16
Full
Mar 23
Last Quarter
Mar 30
New
Apr 7
First Quarter

Hourly Weather History & Observations

Time (CDT) Temp. Windchill Dew Point Humidity Pressure Visibility Wind Dir Wind Speed Gust Speed Precip Events Conditions
12:52 AM 45.0 °F 38.2 °F 37.9 °F 76% 29.67 in - NE 15.0 mph - N/A   Unknown
1:52 AM 42.1 °F 33.6 °F 35.1 °F 76% 29.68 in - NE 18.4 mph 24.2 mph N/A   Unknown
2:52 AM 41.0 °F 31.4 °F 33.1 °F 73% 29.66 in - ENE 21.9 mph 31.1 mph N/A   Unknown
3:52 AM 39.9 °F 29.5 °F 33.1 °F 77% 29.69 in - ENE 24.2 mph 31.1 mph N/A   Unknown
4:52 AM 39.0 °F 28.3 °F 33.1 °F 79% 29.75 in - NE 24.2 mph - N/A   Unknown
5:52 AM 37.9 °F 27.6 °F 33.1 °F 83% 29.78 in - NE 20.7 mph 28.8 mph N/A   Unknown
6:52 AM 36.0 °F 25.6 °F 33.1 °F 89% 29.81 in - NNE 18.4 mph 25.3 mph N/A   Unknown
7:52 AM 35.1 °F 25.2 °F 32.0 °F 89% 29.86 in - NNE 16.1 mph - N/A   Unknown
8:52 AM 35.1 °F 27.9 °F 32.0 °F 89% 29.91 in - NNE 9.2 mph - N/A   Unknown
9:52 AM 36.0 °F 28.5 °F 33.1 °F 89% 29.94 in - North 10.4 mph - N/A   Unknown
10:52 AM 37.0 °F 29.3 °F 33.1 °F 86% 29.96 in - North 11.5 mph 20.7 mph N/A   Unknown
11:52 AM 39.9 °F 31.8 °F 33.1 °F 77% 30.00 in - North 15.0 mph - N/A   Unknown
12:52 PM 43.0 °F 35.1 °F 33.1 °F 68% 30.02 in - North 17.3 mph 25.3 mph N/A   Unknown
1:52 PM 43.0 °F 35.7 °F 33.1 °F 68% 30.04 in - North 15.0 mph 23.0 mph N/A   Unknown
2:52 PM 46.9 °F - 32.0 °F 56% 30.05 in - North 17.3 mph - N/A   Unknown
3:52 PM 46.9 °F - 32.0 °F 56% 30.08 in - North 17.3 mph 24.2 mph N/A   Unknown
4:52 PM 45.0 °F 37.9 °F 30.0 °F 56% 30.10 in - North 16.1 mph 23.0 mph N/A   Unknown
5:52 PM 43.0 °F 35.7 °F 30.0 °F 60% 30.14 in - North 15.0 mph 24.2 mph N/A   Unknown
6:52 PM 39.9 °F 32.5 °F 28.9 °F 65% 30.17 in - North 12.7 mph - N/A   Unknown
7:52 PM 36.0 °F 29.0 °F 28.9 °F 76% 30.22 in - North 9.2 mph - N/A   Unknown
8:52 PM 30.9 °F 26.2 °F 27.0 °F 85% 30.25 in - NE 4.6 mph - N/A   Unknown
9:52 PM 30.9 °F 27.5 °F 27.0 °F 85% 30.24 in - NNE 3.5 mph - N/A   Unknown
10:52 PM 30.0 °F 26.5 °F 27.0 °F 88% 30.25 in - WNW 3.5 mph - N/A   Unknown
11:52 PM 30.0 °F 24.1 °F 27.0 °F 88% 30.23 in - West 5.8 mph - N/A   Unknown